User: anonymous   Login
Location: Unspecified
(0.0000°N, 0.0000°E)
Time: 16:33:40
(UTC+00:00)
Language:

KMS 4 - Orbit

View from above orbital plane
View from above orbital plane
View from above satellite
View from above satellite

Ground track
Ground track

The orbit data is extracted from the following two-line orbital elements,

1 41332U 16009A   18345.42882897  .00001810  00000-0  59537-4 0  9991
2 41332  97.3894  49.4191 0021954 248.3861 208.7065 15.32659721158829
Epoch (UTC): 11 December 2018 10:17:30
Eccentricity: 0.0021954
inclination: 97.3894°
perigee height: 453 km
apogee height: 483 km
right ascension of ascending node: 49.4191°
argument of perigee: 248.3861°
revolutions per day: 15.32659721
mean anomaly at epoch: 208.7065°
orbit number at epoch: 15882

The dashed part of the orbit path shows where the satellite is in the earth's shadow,  

DLR